Flag for USA

Past Weather in Nome, Alaska, USA — Yesterday and Last 2 Weeks

Now
42 °F

Sunny.


Feels Like: 36 °F
Forecast: 45 / 33 °F
Wind: 10 mph from North

Location: Nome Airport
Current Time: Sep 21, 2020 at 10:12:31 pm
Latest Report: Sep 21, 2020 at 8:53 pm
Visibility: 10 mi
Pressure29.74 "Hg
Humidity: 68%
Dew Point: 32 °F
Location of NomeLocation

Past Weather in Nome — Graph

°F

Nome Temperature Yesterday

Maximum temperature yesterday: 45 °F (at 2:53 pm)
Minimum temperature yesterday: 30 °F (at 7:53 am)
Average temperature yesterday: 40 °F

High & Low Weather Summary for the Past Weeks

 TemperatureHumidityPressure
High55 °F (Sep 7, 3:53 pm)100% (Sep 14, 8:33 pm)30.48 "Hg (Sep 14, 8:33 pm)
Low30 °F (Sep 20, 7:53 am)54% (Sep 21, 4:53 pm)29.14 "Hg (Sep 18, 12:53 am)
Average47 °F84%29.82 "Hg
* Reported Sep 6 8:53 pm — Sep 21 8:53 pm, Nome. Weather by CustomWeather, © 2020

Note: Actual official high and low records may vary slightly from our data, if they occured in-between our weather recording intervals... More about our weather records

Nome Weather History for the Previous 24 Hours

Scroll right to see more
 ConditionsComfort  
Time TempWeatherWind HumidityBarometerVisibility
8:53 pm
Mon, Sep 21
42 °FSunny.10 mph68%29.74 "Hg10 mi
7:53 pm46 °FPassing clouds.13 mph58%29.73 "Hg10 mi
6:53 pm49 °FScattered clouds.14 mph57%29.73 "Hg10 mi
5:53 pm50 °FPartly sunny.7 mph57%29.73 "Hg10 mi
4:53 pm50 °FPartly sunny.5 mph54%29.73 "Hg10 mi
3:53 pm50 °FPartly sunny.5 mph57%29.73 "Hg10 mi
2:53 pm49 °FPartly sunny.8 mph59%29.73 "Hg10 mi
1:53 pm49 °FScattered clouds.7 mph59%29.73 "Hg10 mi
12:53 pm48 °FScattered clouds.9 mph61%29.74 "Hg10 mi
11:53 am46 °FScattered clouds.9 mph66%29.73 "Hg10 mi
10:53 am43 °FScattered clouds.10 mph74%29.73 "Hg10 mi
9:53 am40 °FScattered clouds.6 mph83%29.72 "Hg10 mi
8:53 am40 °FScattered clouds.12 mph80%29.71 "Hg10 mi
7:53 am40 °FPassing clouds.7 mph83%29.71 "Hg10 mi
6:53 am41 °FOvercast.3 mph80%29.70 "Hg10 mi
5:53 am41 °FOvercast.7 mph80%29.70 "Hg10 mi
4:53 am37 °FPartly cloudy.6 mph86%29.70 "Hg10 mi
3:53 am41 °FPassing clouds.5 mph80%29.69 "Hg10 mi
2:53 am40 °FPartly cloudy.8 mph80%29.69 "Hg10 mi
1:53 am41 °FMostly cloudy.7 mph82%29.69 "Hg10 mi
12:53 am42 °FOvercast.No wind82%29.69 "Hg10 mi
11:53 pm
Sun, Sep 20
41 °FOvercast.5 mph86%29.68 "Hg10 mi
10:53 pm42 °FOvercast.3 mph82%29.68 "Hg10 mi
Weather by CustomWeather, © 2020

See weather overview